Theta_e
352 352 351 351 351 351 351 349 347 350 350 347 346 344 342 341 338 337 337 339 339 351 351 351 362 361 362 363 363 363 363 363 362 362 363 363 363 355 351 351 353 354 356 356 357 357 357 356 355 354 354 353 352 351 350 348 347 347 345 344 345 344 344 343 344 342 341 341 341 340 339 338 339 337
353 354 353 353 352 353 352 351 350 351 352 348 347 346 346 345 341 339 336 337 339 344 348 350 353 359 360 360 362 361 362 362 362 362 361 361 361 355 351 350 349 350 350 352 355 357 357 357 356 355 355 354 353 352 352 350 348 348 347 346 346 345 344 344 343 341 341 340 339 338 337 337 336 334
353 353 353 354 353 354 352 352 351 351 351 351 349 349 347 345 344 341 339 335 343 341 345 346 351 353 357 357 361 361 363 362 361 362 362 360 358 355 355 350 349 348 347 348 350 354 357 357 356 355 355 354 354 353 352 351 350 349 348 347 347 346 345 344 342 341 340 339 339 338 337 337 336 335
354 353 352 353 354 354 353 353 352 352 352 351 350 349 347 348 345 346 342 338 339 346 343 345 348 350 351 356 357 360 362 362 358 364 364 362 356 358 359 351 348 347 345 345 345 347 351 355 356 356 354 354 354 354 353 353 351 351 349 348 348 346 345 342 342 341 339 339 339 338 337 337 336 336
352 354 353 353 354 354 352 352 351 351 351 351 351 351 347 346 346 345 344 341 341 345 346 346 348 352 354 355 357 358 360 361 363 359 363 363 360 359 359 358 348 346 345 343 342 342 344 349 354 356 354 354 354 353 353 353 352 351 350 349 348 345 342 342 343 341 340 339 338 338 338 337 336 336
350 352 353 353 352 353 352 352 350 350 350 349 348 348 346 345 346 347 345 343 343 340 347 349 349 351 356 356 358 358 359 360 362 362 362 362 361 359 359 357 356 346 344 343 341 340 340 343 346 350 351 351 352 351 351 352 351 348 348 346 343 340 340 341 342 341 341 339 339 338 338 337 337 336
350 350 351 351 352 351 351 351 351 351 350 350 349 348 346 345 345 345 345 345 343 342 345 347 349 353 352 354 358 358 358 359 359 359 360 360 360 359 358 357 356 346 343 342 341 339 339 339 340 342 344 347 349 351 351 348 343 342 341 339 337 337 338 338 339 340 341 340 339 338 338 337 337 337
346 347 349 350 352 353 352 352 352 351 351 350 350 344 343 344 343 345 346 345 342 343 342 348 349 351 349 350 351 353 352 349 352 354 357 359 358 359 356 355 354 350 343 341 340 339 338 337 337 337 338 340 342 343 341 339 338 336 335 335 335 336 336 335 334 337 338 338 337 337 337 337 337 337
346 345 345 347 350 352 349 351 350 350 348 345 346 343 344 344 344 344 345 344 343 342 341 345 347 349 347 349 351 351 349 352 352 353 354 355 356 355 355 355 354 348 345 342 340 339 339 338 336 335 334 335 336 335 336 336 335 334 333 332 333 333 333 332 332 332 334 334 333 333 334 334 334 334
346 343 344 346 348 347 348 349 350 350 346 345 346 345 344 344 343 342 343 344 344 343 342 344 344 347 346 347 347 350 350 349 349 351 353 354 353 353 352 352 352 353 353 352 350 342 339 338 336 335 334 333 333 333 334 334 333 332 331 330 331 331 331 330 330 329 329 330 330 330 331 331 331 332
346 346 346 346 345 344 345 345 346 345 344 347 347 347 345 344 343 342 343 343 343 342 342 342 343 344 346 345 344 349 350 349 348 346 346 348 351 352 350 350 351 352 352 349 347 349 348 345 345 338 333 332 332 332 332 333 334 334 332 329 329 329 329 329 329 328 327 327 327 327 328 329 331 331
345 346 346 344 344 345 346 346 347 347 346 345 344 344 345 344 344 343 343 342 341 341 340 341 343 343 344 346 347 347 346 345 346 347 345 343 345 347 349 348 347 350 351 350 351 348 347 346 344 340 337 335 334 334 334 334 336 337 334 331 329 329 328 328 327 328 327 326 325 324 324 324 327 329
344 345 346 347 345 348 351 353 352 350 349 344 342 342 343 344 344 344 343 343 342 340 340 340 342 341 340 341 341 341 342 342 343 346 346 343 344 344 344 347 350 350 348 349 348 348 350 349 349 350 347 346 339 339 337 338 338 337 335 332 331 330 329 328 327 327 326 326 325 324 322 321 321 324
344 346 347 348 351 353 353 353 352 352 351 347 345 342 342 343 343 342 341 340 341 340 339 339 340 339 338 340 342 341 344 346 346 344 343 340 342 343 342 344 347 350 348 346 345 348 350 349 349 348 347 349 347 345 344 342 339 336 332 331 330 330 329 328 327 326 326 325 324 323 322 321 320 320
345 346 347 347 348 349 348 348 349 350 350 351 351 350 349 348 346 342 339 338 340 340 340 341 340 339 338 340 342 342 343 344 344 342 342 342 341 339 336 335 342 350 348 346 343 344 349 351 345 347 348 348 348 347 346 338 334 332 331 330 329 329 329 329 327 326 325 325 324 323 322 321 320 320
347 347 348 348 347 346 347 347 346 347 350 350 350 350 349 348 348 348 344 342 342 341 340 339 339 339 339 340 341 341 341 342 343 343 342 341 339 338 337 337 336 344 347 344 341 341 349 351 346 345 346 348 348 348 341 334 332 331 330 330 329 328 328 328 328 327 326 325 325 323 322 321 321 320
347 347 347 348 347 345 348 347 343 343 344 347 349 348 346 345 346 342 341 343 344 343 339 338 339 341 341 339 341 343 344 345 340 342 340 341 340 340 338 339 340 344 346 342 340 338 344 348 343 341 345 347 348 348 338 334 332 331 330 329 328 328 328 327 327 327 326 325 324 323 322 321 321 320
345 345 343 345 347 343 342 342 343 342 341 343 345 345 343 343 344 345 344 344 343 343 341 339 337 341 342 339 341 344 344 341 338 337 337 339 337 337 337 340 342 344 348 342 339 336 339 342 341 340 344 346 347 348 340 331 330 330 329 328 328 327 327 326 326 326 326 325 324 322 321 320 320 319
346 345 345 344 344 340 340 341 342 342 341 342 343 343 342 342 342 342 343 344 344 344 343 341 340 341 341 339 338 338 339 338 338 338 338 339 338 338 340 340 342 343 348 345 339 331 337 343 340 340 342 344 345 347 336 329 328 328 328 327 327 326 326 326 325 325 325 325 324 322 320 319 319 318
346 345 346 346 346 344 341 344 346 347 346 343 342 341 342 342 341 342 344 336 337 340 337 337 336 336 337 335 336 338 338 339 339 338 338 338 337 334 332 331 334 334 341 341 338 335 336 341 338 339 343 346 343 346 347 336 330 327 326 325 325 324 324 324 324 324 324 324 323 322 320 318 317 317
344 346 350 348 347 346 345 345 335 337 343 342 341 342 341 339 338 337 335 334 333 330 326 326 327 327 326 325 324 323 324 331 335 334 333 333 333 331 330 331 332 334 337 330 331 332 331 339 337 336 340 342 340 344 346 347 333 324 324 323 322 322 322 321 322 322 322 322 322 321 320 318 316 317
342 344 349 347 343 343 341 330 330 335 342 338 336 335 334 336 334 332 330 330 330 331 330 328 328 327 328 329 330 331 330 329 331 334 334 338 335 331 330 329 330 332 334 330 331 329 332 336 336 334 336 337 341 344 343 338 335 326 326 324 322 320 319 319 319 320 320 320 320 320 319 317 316 319
339 339 340 343 339 339 333 322 324 330 339 336 335 334 332 331 331 330 327 328 329 331 331 332 334 336 336 338 338 339 339 338 335 336 336 337 334 331 331 330 330 328 332 329 332 328 331 330 333 330 328 327 334 335 334 334 335 337 339 337 336 325 322 320 319 318 318 318 319 318 318 316 315 321
335 335 335 334 330 319 318 317 317 320 326 334 332 331 330 328 328 328 325 328 329 328 328 329 331 332 334 336 336 337 337 337 338 338 337 336 335 333 331 330 330 326 330 329 330 327 327 329 325 329 327 323 323 332 335 335 337 337 334 331 333 328 326 325 322 318 315 316 316 316 316 315 315 321
332 332 332 332 332 322 318 314 312 312 317 326 330 329 329 328 327 324 325 326 327 327 328 328 329 331 333 333 333 333 335 335 336 337 335 336 337 335 332 330 329 328 331 329 326 328 324 324 323 325 324 325 325 325 329 329 331 331 328 327 327 331 330 329 326 330 319 314 313 313 313 313 314 320
331 331 331 331 332 322 320 317 312 309 311 316 326 326 318 318 318 323 326 327 327 327 327 328 329 330 331 331 331 331 333 333 333 334 334 334 335 336 337 334 331 327 329 329 325 326 323 322 322 319 319 318 319 321 319 321 325 328 328 329 330 330 330 327 328 328 328 328 326 317 317 312 314 317
329 331 331 331 330 319 311 308 310 310 310 317 322 314 314 316 316 320 325 327 327 326 327 328 328 329 330 330 330 331 331 332 333 333 333 333 334 336 335 336 335 334 333 328 327 325 323 321 320 317 316 317 315 316 317 316 320 326 325 326 327 329 328 327 325 326 327 325 325 317 314 313 314 315
330 329 327 325 315 308 303 304 308 311 316 320 314 312 314 316 318 323 325 326 325 327 327 328 329 330 330 330 331 331 331 331 332 332 333 334 334 331 332 334 333 332 330 327 325 324 323 321 318 318 317 314 313 312 313 318 320 320 319 323 325 326 325 325 325 325 326 325 323 322 320 317 317 317
326 320 313 310 310 311 310 309 311 313 316 313 311 311 314 320 323 324 325 325 326 327 328 329 329 329 331 331 330 331 331 332 332 333 333 331 330 329 330 330 330 330 328 326 324 323 322 321 318 317 316 316 314 315 315 314 315 316 319 319 319 323 324 323 322 322 323 323 322 320 319 318 317 319
319 317 317 319 319 322 325 330 328 328 328 325 323 319 319 321 322 325 324 325 326 328 329 329 329 330 330 330 330 330 331 330 331 330 331 331 331 329 328 328 328 328 327 327 325 323 321 319 320 318 316 315 316 314 314 314 313 316 318 318 319 322 324 321 321 321 321 320 320 320 320 320 319 318
321 325 329 328 322 324 325 327 328 328 329 330 330 328 325 324 325 326 326 326 326 327 328 328 328 328 329 330 331 331 330 330 332 331 330 330 330 330 327 325 327 328 327 326 325 323 321 320 320 318 315 315 315 315 316 315 313 314 316 318 318 314 318 319 319 319 319 319 319 320 319 319 319 320
321 326 329 330 332 332 332 331 330 330 329 329 329 329 328 328 329 330 332 333 331 329 328 329 329 330 330 330 330 330 329 329 330 331 329 328 329 329 326 323 325 328 328 324 322 323 324 322 320 319 317 316 314 315 315 314 313 314 315 316 317 318 318 316 317 318 319 318 317 317 317 318 317 318
325 330 330 329 329 328 328 328 328 328 328 328 328 328 328 328 328 328 328 327 327 328 329 328 328 327 328 328 329 328 328 328 328 329 328 329 327 326 323 323 325 325 326 327 326 324 322 322 322 320 318 316 316 314 312 311 314 316 315 314 314 314 316 317 317 317 318 317 315 316 315 316 317 318
327 327 326 326 326 326 326 326 325 325 325 325 325 325 325 324 323 323 323 323 324 326 326 325 325 324 325 324 325 325 325 326 327 327 325 326 326 325 324 323 325 327 325 325 325 325 323 320 318 318 317 317 318 316 314 312 312 315 316 314 313 313 315 316 317 317 316 316 315 313 314 314 316 319
326 326 324 324 325 325 325 324 323 323 322 321 321 320 319 317 317 317 317 318 321 321 322 322 322 322 321 321 322 322 322 323 324 325 326 326 325 324 324 323 324 325 326 326 325 324 318 318 318 318 318 316 317 318 315 316 316 315 315 314 314 314 314 316 315 316 315 315 315 313 313 314 314 316
325 325 323 322 321 321 321 321 321 319 317 316 315 315 313 312 312 311 311 313 316 316 316 318 318 318 318 318 318 320 320 321 321 322 322 322 322 322 323 322 323 323 324 324 324 323 318 317 316 317 317 318 317 317 319 313 314 318 314 315 315 315 315 315 315 315 314 313 314 313 311 311 312 314
322 322 321 319 319 318 317 316 315 315 314 312 311 310 309 308 308 308 309 311 312 312 312 312 313 313 312 313 315 316 317 318 318 319 319 320 320 320 320 320 321 322 322 323 324 323 320 318 316 316 317 317 316 316 319 317 311 312 316 314 315 315 315 314 313 312 313 313 313 312 312 312 312 314
319 319 317 317 316 315 315 314 313 312 311 311 308 307 307 307 308 308 309 307 307 308 308 308 309 310 309 311 312 313 315 317 319 318 318 318 318 318 318 318 319 320 320 321 322 322 320 318 317 317 316 316 316 316 317 318 314 314 312 315 315 316 315 313 311 310 311 312 311 312 313 311 312 313
317 316 315 314 313 313 311 311 310 308 308 308 306 305 306 306 305 305 304 304 305 305 304 305 305 306 307 307 310 311 312 314 316 316 317 316 316 317 317 317 317 318 318 319 320 320 319 317 317 316 315 315 316 318 319 317 318 320 314 310 316 315 315 314 312 312 311 310 311 312 312 312 313 314
315 315 313 311 310 309 308 307 306 306 305 305 304 303 302 303 303 302 303 302 303 303 302 302 302 303 303 304 306 309 312 313 314 315 315 315 315 315 315 315 315 315 316 316 317 319 318 318 318 318 318 317 319 320 318 317 317 317 316 314 309 314 317 315 313 312 311 312 312 310 308 309 309 310
311 309 308 309 307 306 305 304 304 303 303 303 303 303 302 302 302 301 301 301 302 300 299 299 299 301 301 302 304 305 307 310 311 312 312 313 314 314 314 314 314 315 314 314 316 316 318 320 322 321 323 323 320 317 315 313 313 317 316 317 311 310 312 314 316 315 313 314 312 310 308 307 307 307
310 308 307 306 305 305 304 303 303 302 302 302 301 301 301 301 301 303 300 301 299 300 299 299 298 300 300 301 302 305 306 307 308 309 310 310 311 312 312 312 312 313 314 313 313 315 319 322 323 323 322 319 315 312 312 314 315 318 318 317 317 311 310 311 312 313 317 315 312 310 308 307 307 305
310 308 306 306 305 304 303 303 302 302 302 302 301 302 302 301 300 299 299 299 299 299 298 298 299 299 299 300 302 304 304 305 306 307 307 308 309 310 310 311 312 312 313 314 316 317 318 320 320 320 319 317 315 314 312 315 317 317 316 314 315 316 315 310 310 310 310 311 312 313 313 310 306 304
309 308 307 307 305 304 303 303 302 302 302 302 302 302 302 301 300 299 299 298 298 297 298 298 298 298 299 300 302 303 303 304 306 305 305 307 308 309 310 311 311 312 312 312 312 313 315 316 318 318 316 315 316 314 313 314 314 315 315 317 316 314 313 314 314 310 309 309 309 310 311 311 312 312
310 309 308 307 306 304 303 303 302 302 301 301 301 301 301 300 300 299 299 298 298 297 298 297 298 299 299 300 301 300 302 304 304 305 305 307 307 308 309 310 310 311 310 311 310 311 313 315 317 317 316 316 316 315 315 315 315 315 315 315 315 315 313 313 312 312 312 313 311 309 310 311 311 311
Wind_Speed
5 4 5 5 4 4 4 3 4 5 4 4 4 5 6 5 4 3 3 4 4 2 3 2 3 2 3 3 3 5 7 7 7 8 8 8 7 11 16 16 16 16 16 16 16 17 19 19 20 19 19 18 18 18 18 17 17 17 16 15 14 14 14 11 13 11 12 10 11 11 12 12 11 10
4 5 4 4 4 4 3 4 4 4 5 4 4 5 5 5 6 5 5 6 3 4 2 3 4 2 2 2 3 5 6 9 9 8 8 8 9 12 13 15 16 16 16 16 16 17 19 20 20 20 19 19 19 20 20 19 18 18 18 17 17 17 15 13 13 14 13 13 13 11 10 9 8 8
5 5 6 4 5 4 4 4 4 4 4 5 4 4 3 5 6 6 5 4 3 3 4 3 4 3 4 2 3 4 6 7 8 7 6 8 11 11 10 13 14 15 16 17 17 17 19 20 20 19 19 20 20 20 20 20 19 19 19 18 19 18 16 13 13 15 15 14 14 13 12 11 11 11
5 6 6 6 5 5 4 4 4 4 4 4 4 4 4 5 5 5 5 6 8 3 4 5 5 4 5 5 5 5 5 4 6 6 6 7 8 6 6 10 14 15 16 17 17 18 18 19 20 20 20 21 20 20 20 19 19 19 19 19 20 19 16 14 15 14 17 16 15 15 14 14 13 12
6 6 7 7 7 5 5 5 4 4 5 4 4 3 3 4 4 5 5 5 7 4 2 3 4 2 2 3 3 5 5 4 2 4 5 5 5 6 5 6 10 14 15 16 17 18 18 19 20 20 20 18 19 18 18 18 18 19 20 20 20 17 15 13 15 18 17 17 18 16 16 16 15 14
6 6 7 7 6 5 6 5 5 5 5 4 3 3 3 3 4 4 5 6 4 6 2 3 2 3 2 3 2 3 4 4 3 5 5 4 5 5 5 6 6 12 14 15 16 17 17 18 19 20 13 15 14 15 16 16 17 17 18 18 17 17 17 17 16 18 16 18 17 16 17 16 15 14
7 6 6 7 6 4 5 6 5 5 5 4 4 4 1 2 4 4 4 4 4 5 5 3 3 3 2 3 3 3 3 3 3 4 5 5 4 4 5 5 5 8 10 12 13 14 15 16 17 17 12 10 12 12 16 16 17 17 17 18 18 18 17 16 15 18 16 17 16 17 17 17 15 15
10 10 8 6 6 5 6 6 5 4 5 2 2 4 3 3 3 4 4 5 4 3 6 3 4 3 3 4 4 3 3 4 4 4 4 3 4 4 4 5 5 5 6 9 11 12 14 16 16 16 9 14 19 17 18 19 19 18 17 18 18 17 17 17 15 16 17 18 19 19 19 18 18 16
7 11 12 11 8 5 6 6 5 5 3 4 4 4 3 5 5 2 1 2 3 5 8 7 4 3 3 4 4 3 4 3 3 3 4 4 3 4 5 5 4 5 6 9 11 12 14 15 16 15 11 19 21 20 21 20 19 19 17 18 19 18 18 18 16 14 18 19 19 19 18 18 18 18
5 7 10 10 11 8 7 7 6 2 6 5 5 6 5 3 2 4 5 4 6 6 8 7 7 4 6 5 5 2 1 2 4 5 4 2 2 3 3 3 3 3 3 4 5 8 11 14 15 15 14 19 21 21 21 20 19 19 18 18 19 19 19 17 17 18 18 19 19 18 20 19 19 19
3 5 6 5 6 6 8 11 8 2 4 5 6 3 2 3 4 5 6 6 6 6 7 6 6 6 4 3 6 1 0 2 3 5 6 6 1 1 2 4 2 2 4 7 9 9 8 9 8 12 16 17 19 19 19 19 21 20 19 18 19 19 18 19 19 19 19 19 19 20 19 19 19 19
5 4 4 5 4 4 6 6 7 7 5 2 4 3 5 6 6 5 5 4 5 6 6 7 6 5 4 3 4 3 3 4 2 3 3 4 4 4 1 2 5 4 4 5 4 6 8 9 11 11 11 15 17 18 17 18 18 20 19 21 20 19 19 18 19 22 21 20 20 20 20 19 19 19
5 6 5 6 6 6 9 11 8 6 2 2 5 9 7 4 3 5 5 6 6 7 7 8 7 6 6 7 6 6 5 5 5 1 1 5 5 5 6 4 4 5 6 5 4 4 4 5 5 6 7 8 12 13 17 14 18 20 19 21 21 20 19 20 20 21 21 20 19 20 20 19 19 19
6 6 5 5 8 10 12 11 10 5 9 11 8 5 1 3 6 7 8 7 6 7 8 8 7 7 8 7 6 7 5 3 2 4 4 7 6 5 7 6 4 3 4 4 5 4 3 4 6 6 7 6 6 7 7 11 11 14 18 20 19 20 19 20 20 20 20 20 21 20 19 18 19 19
7 6 5 4 5 6 6 4 4 7 4 3 13 16 14 10 8 8 9 6 6 7 7 5 6 7 8 8 6 7 6 5 5 5 5 6 6 5 6 8 3 2 3 4 4 4 3 3 6 6 7 7 5 7 9 11 13 16 15 16 18 18 20 20 19 20 20 20 20 20 19 21 22 21
6 6 6 4 2 2 5 3 3 4 6 7 8 9 8 6 9 8 7 6 6 8 8 7 6 6 7 6 5 6 3 4 4 5 5 5 5 6 6 5 6 2 0 4 6 7 4 3 6 6 6 6 6 7 9 12 13 15 16 17 17 17 17 19 20 20 21 21 20 20 20 22 22 23
5 5 5 4 2 2 7 2 3 3 4 8 11 10 6 8 9 7 7 8 7 5 5 5 7 7 6 7 6 4 4 3 6 5 5 4 5 6 8 6 4 4 1 4 6 8 3 1 6 7 6 6 6 7 10 14 13 13 14 15 16 16 16 17 19 20 20 21 21 20 21 22 22 20
4 3 4 4 3 2 5 2 3 4 4 6 7 6 2 3 6 7 6 8 10 8 6 6 7 6 6 7 6 5 5 6 6 5 5 5 6 6 6 6 6 5 2 6 8 10 6 3 5 7 5 5 7 7 8 11 12 13 13 14 15 15 15 16 17 18 19 20 20 20 21 21 20 22
5 5 4 3 2 2 7 5 5 5 5 6 7 7 6 4 4 5 4 4 4 4 4 4 5 5 5 5 4 3 3 3 4 4 7 7 8 8 7 6 5 6 5 7 5 6 5 4 6 7 6 6 7 7 8 11 12 12 12 12 13 14 15 15 16 17 18 19 20 20 20 20 21 22
3 2 2 1 2 3 5 6 8 5 4 4 5 6 5 3 1 2 3 5 4 3 1 1 2 3 4 4 5 5 4 4 4 4 4 4 4 6 7 7 5 5 1 3 4 4 4 3 5 6 5 5 7 6 6 7 9 10 10 10 11 12 13 14 15 16 16 17 18 19 19 19 20 22
4 3 2 3 3 2 2 3 2 3 3 3 4 4 3 2 1 1 2 4 4 4 4 3 3 5 7 7 7 7 6 5 3 2 3 5 4 4 7 6 4 3 2 2 3 2 4 2 3 5 5 5 6 6 5 3 3 4 3 4 7 9 11 12 14 15 15 15 16 17 17 19 19 22
4 6 10 7 4 4 3 3 3 2 3 2 1 1 3 4 1 1 2 2 2 4 4 3 4 6 5 4 5 4 5 2 4 3 3 3 2 5 6 4 2 3 1 2 4 4 3 4 3 5 5 5 4 3 1 2 2 2 2 3 4 6 7 9 11 13 14 13 13 14 17 18 18 14
4 4 5 8 6 4 3 4 5 5 3 2 2 1 2 4 4 1 2 3 4 4 4 3 4 2 3 3 2 3 6 4 2 2 4 5 5 5 4 3 3 4 0 1 4 5 4 5 4 5 7 4 3 1 1 2 2 2 4 5 5 3 5 7 9 10 11 12 11 12 15 16 15 9
3 4 4 4 5 3 3 2 3 2 2 1 1 1 2 4 5 2 2 2 3 3 2 3 3 3 3 2 2 2 2 2 2 2 3 4 4 4 4 3 3 5 4 3 5 3 4 3 6 5 4 6 5 2 5 5 4 5 4 5 5 6 6 6 6 7 9 9 9 11 14 14 15 10
2 4 4 4 5 4 3 1 1 1 3 3 0 0 2 3 3 3 3 3 4 2 3 2 2 2 2 1 1 1 2 1 1 1 1 2 2 3 3 4 5 5 3 2 3 2 3 4 6 5 5 3 6 7 4 5 4 3 4 5 6 5 7 7 5 6 5 5 7 9 11 14 19 14
4 5 6 5 4 5 5 5 4 4 2 3 2 3 4 3 3 3 3 3 2 2 2 2 2 1 1 1 2 2 1 1 1 1 1 1 1 2 2 3 4 4 3 1 1 2 2 2 3 5 5 4 6 5 7 7 6 2 3 3 3 6 6 8 7 6 5 3 3 6 9 14 18 20
5 4 5 5 8 9 8 7 7 6 4 4 4 4 4 4 3 3 2 3 2 1 1 1 1 1 1 1 2 2 2 2 1 2 2 2 2 2 3 3 4 4 1 3 2 2 1 2 3 4 4 5 6 7 6 6 6 6 8 6 7 7 8 6 7 7 5 3 3 5 8 12 17 20
4 4 4 6 10 10 9 8 7 6 6 5 4 6 5 3 3 2 3 2 2 1 1 1 1 1 1 1 1 2 2 3 3 4 3 2 2 3 3 4 4 2 3 3 3 2 1 0 3 3 4 4 5 6 7 6 6 7 8 7 7 6 6 6 6 7 5 3 2 3 4 5 8 10
3 6 9 11 10 9 7 6 5 4 6 8 8 7 6 5 2 2 3 2 1 1 2 2 2 2 1 1 2 2 3 4 4 3 3 1 2 2 2 3 3 3 3 3 3 3 2 1 0 2 3 3 4 5 6 7 7 7 7 8 5 4 6 5 5 6 6 4 2 3 5 5 6 8
8 8 9 9 9 7 6 3 4 4 3 3 3 1 1 1 2 3 3 3 2 2 3 3 4 3 3 3 3 3 3 3 3 3 3 3 2 2 3 4 5 5 5 4 4 4 3 3 2 2 3 4 5 6 6 7 6 6 7 7 8 8 3 4 5 5 5 5 3 3 3 5 7 8
6 8 7 6 6 4 8 9 6 8 8 6 4 3 2 1 2 2 2 2 3 4 4 4 4 3 3 3 2 2 3 4 3 1 3 3 4 1 2 4 7 6 5 6 6 5 5 5 4 4 3 4 5 6 6 6 7 6 6 7 7 7 6 5 5 5 5 5 4 3 2 4 5 7
6 5 5 6 6 6 7 6 6 6 7 9 8 6 4 3 4 5 6 6 4 3 3 5 6 5 5 5 5 4 4 4 4 3 3 4 4 3 2 3 5 4 3 3 5 7 7 6 6 5 5 5 5 5 5 5 6 6 6 6 6 6 6 5 6 6 5 4 3 3 3 3 5 6
4 5 7 8 9 9 9 9 9 9 9 9 9 9 9 8 8 8 7 7 7 7 6 6 6 6 6 6 6 7 5 4 5 4 4 3 2 3 2 5 7 6 6 5 2 4 5 6 6 6 6 6 7 7 6 7 6 4 5 6 5 5 5 5 5 5 5 4 4 3 3 3 5 6
6 8 8 8 8 8 8 8 8 8 8 8 8 8 9 9 9 8 8 8 7 7 7 7 7 7 6 6 6 7 6 7 5 5 4 6 5 6 6 6 6 4 4 5 5 2 2 3 4 5 5 7 7 8 7 7 8 6 5 5 4 5 4 4 4 4 4 4 5 4 3 3 4 5
8 7 7 6 6 7 6 7 7 7 7 8 7 7 7 7 8 8 8 9 8 7 7 6 6 6 6 5 5 5 5 5 6 5 4 4 5 5 7 7 8 7 6 5 5 1 2 2 2 3 3 3 4 6 11 11 6 7 4 5 4 4 4 3 4 4 3 3 3 5 5 3 3 4
7 6 6 6 6 6 7 7 7 7 6 6 7 6 7 7 8 8 8 8 7 7 7 6 6 6 6 5 5 5 5 5 5 5 6 6 6 6 5 6 7 8 8 9 9 2 2 2 3 4 5 4 3 5 2 11 12 4 3 4 2 3 4 3 3 3 3 3 3 4 4 5 4 4
6 6 6 6 6 6 6 6 6 5 6 5 5 6 6 7 7 7 7 7 6 7 7 7 7 7 7 7 6 6 6 6 6 6 6 6 6 6 6 7 7 7 8 8 7 6 1 4 3 4 4 6 6 6 5 4 8 11 6 5 4 2 3 3 3 4 3 3 4 4 5 5 4 4
6 5 5 5 5 5 5 5 5 5 5 5 5 5 6 5 5 5 5 6 7 6 7 6 6 6 7 7 7 7 7 6 6 6 7 7 7 7 7 7 8 7 7 7 6 6 3 4 4 5 4 8 9 8 7 1 1 6 14 8 5 3 2 3 3 4 4 3 4 4 4 5 5 4
5 5 5 4 5 4 5 5 5 5 5 5 5 5 5 5 6 6 7 7 6 6 6 6 6 6 6 6 6 6 7 7 7 7 7 7 7 7 7 7 8 7 8 8 8 5 1 3 4 4 5 7 9 8 5 7 6 1 7 14 6 4 4 3 4 4 4 3 3 3 1 1 1 2
5 5 5 5 5 4 5 5 5 5 5 5 5 5 6 6 6 6 6 7 6 6 6 6 7 6 6 6 6 6 7 7 7 7 7 7 7 7 7 7 7 7 8 9 9 7 6 5 5 4 6 6 8 5 4 5 6 3 4 7 13 9 5 5 4 4 4 4 3 3 4 2 3 1
5 6 6 5 5 5 5 5 5 5 5 5 5 5 6 5 5 6 5 6 6 6 6 6 6 6 6 6 6 6 6 6 6 7 7 7 8 8 9 9 6 6 7 8 8 8 8 8 10 13 11 8 4 1 4 7 8 6 4 4 9 14 10 7 6 5 5 4 5 4 4 4 4 3
5 5 5 5 5 5 4 4 4 4 4 4 4 5 5 5 5 8 6 7 6 5 4 5 5 5 6 6 5 5 5 5 6 6 7 7 7 8 8 7 8 8 8 8 8 8 8 8 8 7 7 3 3 5 7 9 9 6 1 1 2 7 11 11 10 8 6 6 6 5 4 3 3 4
4 4 4 4 4 4 4 3 3 3 3 4 4 4 4 4 4 5 5 5 5 5 5 5 5 5 5 5 5 5 5 6 7 7 7 7 7 7 7 8 7 7 7 8 7 8 8 8 9 8 6 4 5 6 8 9 9 8 4 3 3 3 5 9 11 11 10 9 9 9 6 5 4 4
3 3 3 3 3 3 2 2 2 2 2 3 3 3 3 3 4 4 4 5 5 5 5 5 6 6 6 6 5 5 4 6 7 8 7 7 7 7 7 8 8 7 7 7 7 7 8 8 7 8 7 6 5 6 8 10 10 9 7 4 1 3 4 4 5 7 8 9 11 12 11 10 10 5
2 2 2 2 2 2 2 2 2 2 2 2 2 3 2 3 3 3 4 4 5 5 5 6 6 6 6 6 6 6 6 7 8 7 8 8 7 7 7 7 8 7 7 7 7 7 7 7 7 6 6 6 7 7 8 8 9 9 9 7 7 5 4 4 5 7 8 8 11 15 14 14 13 12
Wind_Direction
212 209 199 204 217 222 209 213 214 206 197 195 190 182 193 186 220 274 276 257 252 295 194 248 303 211 237 235 231 224 227 227 206 212 217 221 222 216 215 217 219 220 221 222 223 223 224 224 224 223 221 221 220 219 219 220 222 224 224 221 219 221 223 226 171 183 190 191 206 215 224 218 219 207
213 218 216 204 217 215 200 212 212 207 204 200 202 197 195 170 199 207 249 271 220 261 276 213 263 312 266 229 228 227 235 231 215 217 214 219 225 220 214 216 218 219 220 221 222 222 223 225 225 224 222 221 220 220 220 221 226 224 222 219 218 220 219 222 170 182 186 191 199 205 208 223 236 221
217 222 227 218 231 221 218 214 215 214 201 214 212 213 168 185 196 198 200 257 258 190 257 256 233 254 296 270 256 240 234 233 221 226 220 225 231 225 220 218 218 218 220 221 222 223 224 226 227 224 224 222 220 221 221 223 224 221 222 220 219 221 220 218 170 182 184 187 196 199 204 212 221 215
221 219 228 225 225 222 232 239 232 219 215 211 214 200 184 188 194 173 184 223 258 215 238 264 286 278 277 282 270 266 266 247 219 236 234 240 244 233 234 220 220 219 220 222 223 224 226 227 228 224 221 223 222 221 222 223 222 221 222 222 222 222 222 209 179 182 187 188 189 195 202 208 216 219
226 222 225 226 225 217 223 226 235 239 232 218 215 192 176 192 185 185 200 232 261 278 255 269 264 292 288 282 233 265 275 285 252 234 241 242 235 237 232 232 225 224 224 225 224 226 227 229 230 229 224 224 228 228 228 226 227 224 223 224 224 224 224 220 186 187 186 189 194 191 198 205 210 216
222 219 218 226 229 207 222 231 236 236 245 233 216 195 190 203 212 200 196 223 249 271 274 258 246 265 219 255 233 241 262 265 248 244 237 226 223 227 226 227 228 220 226 227 229 230 231 233 235 234 227 234 237 242 245 242 235 231 229 227 225 222 219 220 199 196 187 190 191 191 197 200 205 211
249 234 224 231 229 216 226 231 238 234 239 231 221 215 202 355 348 341 305 296 266 257 258 243 259 240 237 234 250 231 238 260 261 261 249 237 227 224 226 236 241 229 230 236 238 239 240 242 245 244 225 246 253 244 237 235 238 233 227 227 227 220 220 219 212 205 197 194 189 193 196 199 201 208
321 299 290 269 235 223 227 234 233 225 222 235 51 75 134 169 206 193 183 196 227 264 282 252 236 224 251 257 245 253 264 267 261 248 271 268 257 253 239 241 253 242 223 232 237 237 237 240 243 246 191 216 231 234 238 234 232 231 225 226 228 226 221 218 216 206 206 206 203 200 200 199 202 204
317 305 287 279 274 243 226 236 233 228 129 126 153 156 176 192 216 236 247 263 247 260 264 270 250 240 245 245 261 237 263 264 244 233 242 257 262 270 265 263 255 262 239 236 237 234 236 237 238 239 191 211 227 229 233 231 229 230 227 226 228 225 223 217 215 210 211 208 207 206 206 203 204 205
223 260 280 293 307 302 278 261 245 171 152 172 176 198 202 210 215 237 238 233 246 242 253 256 273 248 247 259 255 260 206 279 296 300 287 260 222 251 261 240 239 247 245 247 231 235 237 237 236 235 212 214 224 226 227 229 230 231 229 228 229 226 221 214 214 213 216 213 210 204 209 207 206 207
211 223 261 277 262 279 297 297 307 340 248 210 220 240 284 268 242 233 228 222 220 227 242 247 243 266 256 246 276 300 271 288 273 289 308 305 308 239 283 300 272 236 246 232 236 247 243 236 233 229 226 226 229 230 231 231 233 234 235 236 234 232 226 218 215 216 218 217 212 208 207 207 209 208
249 232 191 233 258 239 237 250 258 239 243 24 18 342 240 223 223 236 241 229 228 230 236 242 249 235 269 266 241 281 300 298 254 197 241 277 300 311 272 256 290 282 258 268 258 234 244 249 243 243 233 231 236 239 240 239 238 237 234 239 236 235 231 224 218 219 216 215 214 210 207 208 210 210
251 255 234 214 211 226 248 258 262 247 160 159 215 232 230 238 252 263 255 237 230 238 243 254 252 262 266 261 280 286 271 254 273 54 301 288 285 287 293 272 237 252 271 273 264 266 255 259 254 255 254 240 229 237 236 242 241 240 238 239 240 236 231 230 225 223 220 216 215 212 208 206 208 209
260 261 258 257 272 291 302 315 335 305 191 199 225 248 161 223 229 231 240 243 246 249 250 249 257 266 267 270 262 269 261 270 282 283 285 290 294 283 286 284 252 231 242 254 272 252 247 246 266 256 260 261 230 240 227 235 232 232 233 238 239 239 237 233 232 227 225 218 218 214 208 204 207 210
267 266 262 272 290 291 301 311 302 266 304 268 232 235 234 225 219 224 244 240 229 241 245 254 254 252 264 268 268 267 292 300 284 290 286 283 292 297 305 306 293 219 236 252 270 280 248 228 263 273 266 267 248 252 252 235 229 235 236 236 237 236 236 239 233 234 231 226 219 216 205 205 205 205
288 293 294 287 294 281 288 262 253 323 337 286 261 257 257 260 263 262 246 247 244 246 250 252 251 256 257 271 275 289 261 248 268 276 269 270 275 282 281 274 288 290 251 291 290 282 267 239 260 270 269 265 256 243 241 232 228 230 235 238 239 238 230 231 234 230 230 230 224 217 210 209 205 204
290 301 313 335 335 325 287 293 60 19 306 290 269 265 275 272 260 252 245 249 250 272 267 263 269 259 274 284 288 293 295 307 297 297 295 291 281 277 280 274 289 309 8 294 286 288 286 260 289 288 274 270 262 251 237 239 239 233 234 239 242 241 237 230 230 233 230 227 227 216 213 214 206 200
265 281 311 325 351 94 275 281 143 173 254 272 270 275 280 265 278 281 261 256 256 252 253 262 270 279 283 282 290 311 334 328 328 332 324 335 323 312 300 312 299 288 193 269 294 292 293 264 282 288 291 285 282 269 258 246 242 241 240 240 243 245 241 234 232 232 232 230 226 221 214 213 203 198
293 306 312 314 308 242 270 264 247 206 214 248 271 287 295 295 296 300 303 303 308 316 315 273 280 308 334 335 336 324 308 290 270 271 289 295 290 287 291 291 268 271 249 262 275 285 295 282 290 294 296 295 292 285 265 248 245 245 246 246 246 247 248 247 237 231 230 230 228 222 217 210 201 198
312 316 307 245 259 209 239 264 261 255 208 247 279 289 293 299 320 306 355 24 22 33 45 321 277 275 274 268 266 260 252 258 272 301 309 303 281 292 295 294 306 295 352 357 273 272 305 320 296 310 303 287 283 271 270 259 245 248 251 253 255 252 251 250 248 243 234 230 228 223 217 210 200 200
21 18 10 45 17 353 344 313 213 249 280 292 288 301 349 69 68 330 24 32 36 3 333 290 259 250 251 259 263 269 255 243 262 265 295 291 287 286 292 289 291 299 102 49 16 307 291 305 324 295 283 282 280 270 277 315 22 11 309 272 261 260 261 257 253 251 245 236 227 221 214 209 203 199
26 27 23 51 36 29 48 99 107 209 119 114 84 348 343 322 315 274 346 343 331 318 312 296 298 287 290 286 289 281 295 297 200 205 274 305 280 295 290 305 353 299 82 43 344 313 268 320 315 312 293 276 246 255 312 357 349 349 314 246 264 272 271 272 268 260 253 244 233 219 210 207 200 194
17 10 10 30 45 45 66 51 49 43 83 139 120 356 310 299 293 276 336 346 345 344 345 341 357 12 14 16 357 344 338 33 152 245 299 319 307 311 327 331 319 320 72 34 349 324 324 340 344 1 328 307 310 8 337 328 307 319 343 345 331 324 294 284 274 269 263 250 238 217 207 203 185 180
6 3 359 5 31 40 37 56 74 74 54 124 101 50 310 300 295 67 327 319 317 314 313 314 331 329 339 335 354 337 345 347 11 331 313 316 323 332 337 314 306 302 315 38 1 349 318 349 320 342 310 306 313 354 330 333 0 346 344 326 314 334 332 314 294 279 268 261 243 222 208 189 174 180
343 337 338 335 345 3 341 351 355 28 30 29 94 241 254 267 323 342 307 307 308 304 317 325 330 334 327 324 321 330 326 344 1 39 43 15 337 320 319 316 316 306 312 4 351 27 331 323 310 327 317 298 292 308 310 314 313 312 342 335 326 321 329 323 318 310 299 261 247 226 210 185 180 182
344 334 322 317 321 350 338 311 273 262 255 290 260 238 233 272 296 273 264 269 284 313 332 328 334 335 337 340 355 348 336 334 344 357 21 57 314 292 261 264 291 302 305 121 46 62 338 321 338 322 316 312 299 311 309 312 316 331 335 323 320 308 308 311 312 308 302 284 254 212 206 192 189 193
323 316 306 296 312 321 309 295 286 273 259 272 245 241 249 234 257 253 229 228 237 267 296 326 323 320 332 346 342 336 331 318 299 305 305 269 251 238 243 236 234 254 280 142 118 124 74 291 341 323 309 310 305 310 306 308 318 331 322 327 315 297 307 308 307 312 307 260 246 213 206 200 199 201
309 312 320 308 304 296 288 277 267 261 251 251 245 240 241 244 233 219 221 217 222 230 267 275 288 284 267 282 309 322 316 310 308 300 289 285 261 244 232 223 212 176 149 147 145 131 116 317 330 325 308 304 301 303 307 303 299 311 312 310 301 297 308 312 311 314 313 298 239 205 202 209 213 209
328 304 290 292 296 295 286 270 251 253 239 237 253 258 270 274 244 236 230 233 239 301 298 303 290 287 291 307 294 291 295 297 295 294 291 260 282 257 246 242 233 207 171 164 163 160 164 158 283 312 308 291 285 287 295 297 307 306 312 316 318 322 306 310 315 316 315 309 258 205 205 203 200 201
325 309 317 330 344 352 5 7 13 354 349 288 247 239 345 341 309 312 308 314 327 333 331 318 307 320 326 311 292 273 268 281 304 323 310 315 279 261 270 270 259 236 225 207 180 170 175 186 202 239 276 282 280 289 294 306 302 304 310 313 314 311 306 329 323 317 311 308 290 242 224 207 197 187
352 339 343 343 348 19 42 53 49 41 31 29 33 36 17 308 285 286 284 297 318 327 310 304 313 306 295 281 282 335 340 330 326 356 305 296 297 306 287 269 282 273 234 219 214 199 188 197 199 203 238 275 283 272 287 295 293 297 306 314 323 314 321 324 314 308 307 298 304 266 238 216 210 202
331 323 335 8 25 26 33 31 35 38 45 49 47 40 23 350 327 322 320 323 320 298 288 302 307 315 329 341 352 348 343 332 325 341 325 309 305 326 300 273 270 263 268 193 214 213 211 207 205 211 223 235 267 289 296 293 287 291 302 311 309 306 308 313 313 313 308 302 289 267 242 221 213 211
307 6 28 24 24 28 27 29 27 26 27 33 35 36 34 33 33 33 30 22 12 1 352 349 344 344 351 353 354 348 339 337 329 338 325 317 295 310 265 263 280 287 288 280 193 189 211 217 215 219 225 234 238 251 273 296 286 273 300 304 309 308 316 310 312 307 309 297 287 281 252 229 228 216
39 42 40 35 30 28 30 29 26 22 23 23 24 26 28 27 24 23 22 20 16 15 21 16 17 14 9 12 3 360 351 340 336 339 347 337 332 310 296 293 280 261 256 268 273 229 186 207 210 227 239 246 243 234 223 231 259 277 283 296 293 302 302 309 304 308 295 293 299 290 264 251 234 227
47 45 44 35 32 30 31 33 29 26 26 25 26 27 27 28 21 17 16 8 5 13 13 15 19 17 17 9 3 1 352 343 340 343 349 354 351 338 320 306 301 298 289 281 269 212 188 202 198 233 245 238 250 226 213 219 236 255 279 273 281 286 304 304 308 303 298 287 276 274 284 279 253 237
50 47 51 42 36 29 33 31 30 33 30 26 23 19 22 22 20 14 11 351 357 9 12 7 9 8 6 354 350 351 347 342 342 349 349 353 348 341 337 322 312 308 306 299 297 293 175 229 206 231 257 262 283 298 248 207 211 229 243 269 237 274 290 296 300 298 289 273 256 261 265 262 257 227
48 40 42 44 39 35 33 27 26 27 30 30 31 31 27 19 13 13 358 345 12 16 15 6 9 4 358 352 348 348 345 343 342 347 348 346 342 340 338 332 330 324 319 313 314 309 259 269 234 246 266 282 282 279 270 129 217 219 230 250 263 224 282 297 298 285 271 256 268 251 258 271 269 249
54 50 54 47 43 37 38 35 28 28 26 29 34 41 40 28 11 8 354 16 17 13 11 13 7 2 358 354 350 347 346 342 344 348 347 345 341 339 338 331 327 329 324 314 323 328 311 283 273 265 261 276 288 284 292 165 175 211 206 218 255 256 247 277 277 283 275 256 252 264 266 264 266 264
51 51 49 44 43 40 35 30 31 32 22 26 29 32 31 26 16 10 13 15 10 8 7 9 7 359 354 352 355 352 347 343 345 351 349 347 344 338 334 333 328 329 326 324 332 335 280 284 278 268 256 266 272 275 290 294 275 130 179 197 224 237 229 228 268 263 261 256 246 240 253 16 17 16
41 43 43 45 38 38 43 36 35 29 28 22 27 28 32 32 20 13 10 4 358 358 6 5 358 349 355 352 346 348 352 349 345 344 342 343 343 340 338 334 330 328 324 326 330 337 334 317 295 284 271 246 261 286 312 287 288 249 211 207 213 216 219 194 217 238 248 240 227 219 226 221 238 212
46 49 43 41 45 38 42 40 34 30 28 21 22 35 38 22 22 23 15 12 360 1 357 354 350 348 349 345 347 349 347 346 344 342 338 336 335 338 339 335 327 329 330 327 329 329 328 324 306 294 285 264 258 347 276 267 259 247 213 213 197 215 225 213 210 209 237 219 216 219 218 219 230 218
54 56 52 46 45 41 39 37 34 41 32 28 28 27 23 25 23 15 11 12 5 0 350 350 345 340 341 339 339 341 349 340 338 337 336 333 330 332 334 339 336 335 332 330 330 321 317 315 311 316 320 269 200 226 246 258 264 267 222 203 195 204 215 222 219 217 223 217 212 215 214 211 205 226
62 60 57 55 58 54 43 39 37 45 37 37 34 23 23 17 6 6 6 1 355 356 352 344 339 337 335 335 335 337 334 339 339 334 328 327 329 327 327 329 327 326 323 321 322 320 319 325 333 335 327 284 256 244 260 272 279 284 270 222 212 194 209 213 223 219 219 223 226 235 225 200 181 215
75 79 72 68 76 73 63 56 51 49 47 42 33 22 29 15 16 9 4 357 356 352 345 343 340 339 337 334 331 333 339 339 335 332 328 326 324 323 319 320 322 319 320 321 323 323 327 329 332 333 328 318 292 267 268 280 285 285 284 274 202 191 217 205 208 220 233 237 233 231 224 218 227 257
121 119 117 116 124 110 98 75 69 57 58 56 41 40 29 23 17 6 3 357 354 349 345 346 339 339 338 338 340 340 334 336 335 331 329 329 327 324 321 322 318 320 319 325 323 321 326 323 325 330 325 318 305 287 282 281 282 287 285 275 269 235 212 194 206 219 225 236 218 217 226 222 222 225